• In Hungary
  • List of Countries
  • For 7 days
  • Water Temperature
  • Satellite Maps
  • Weather Map
  • News
  • Weather Widgets
  • user-avatar
    Login

    Hourly Weather Lipovskaya

    Today, 27 May, Sunday

    Time Temperature Precipitation Wind Pressure Humidity
    00:00 +9°C° 0 mm 2 mps 755 mmHg 85%
    01:00 +9°C° 0 mm 2 mps 755 mmHg 86%
    02:00 +8°C° 0 mm 2 mps 755 mmHg 88%
    03:00 +9°C° 0 mm 2 mps 755 mmHg 88%
    04:00 +9°C° 0 mm 2 mps 754 mmHg 87%
    05:00 +9°C° 0 mm 2 mps 754 mmHg 86%
    06:00 +12°C° 0 mm 2 mps 754 mmHg 79%
    07:00 +14°C° 0 mm 2 mps 754 mmHg 73%
    08:00 +16°C° 0 mm 2 mps 754 mmHg 66%
    09:00 +17°C° 0 mm 2 mps 754 mmHg 61%
    10:00 +18°C° 0 mm 2 mps 754 mmHg 56%
    11:00 +20°C° 0 mm 2 mps 753 mmHg 52%
    12:00 +20°C° 0 mm 2 mps 753 mmHg 51%
    13:00 +21°C° 0 mm 2 mps 753 mmHg 50%
    14:00 +21°C° 0 mm 2 mps 752 mmHg 49%
    15:00 +21°C° 0 mm 2 mps 752 mmHg 52%
    16:00 +21°C° 0 mm 2 mps 752 mmHg 55%
    17:00 +21°C° 0 mm 2 mps 751 mmHg 58%
    18:00 +19°C° 0 mm 2 mps 751 mmHg 65%
    19:00 +18°C° 0 mm 1 mps 751 mmHg 72%
    20:00 +15°C° 0 mm 1 mps 751 mmHg 79%
    21:00 +14°C° 0 mm 1 mps 751 mmHg 81%
    22:00 +14°C° 0 mm 1 mps 751 mmHg 83%
    23:00 +13°C° 0 mm 1 mps 751 mmHg 85%

    Tomorrow, 28 May, Monday

    Time Temperature Precipitation Wind Pressure Humidity
    00:00 +13°C° 0 mm 1 mps 751 mmHg 86%
    01:00 +13°C° 0 mm 1 mps 751 mmHg 87%
    02:00 +12°C° 0 mm 2 mps 751 mmHg 88%
    03:00 +13°C° 0 mm 2 mps 751 mmHg 88%
    04:00 +13°C° 0 mm 2 mps 752 mmHg 88%
    05:00 +13°C° 0 mm 1 mps 752 mmHg 88%
    06:00 +15°C° 0 mm 2 mps 752 mmHg 82%
    07:00 +17°C° 0 mm 2 mps 752 mmHg 77%
    08:00 +19°C° 0 mm 2 mps 752 mmHg 71%
    09:00 +20°C° 0 mm 2 mps 752 mmHg 67%
    10:00 +21°C° 0 mm 3 mps 753 mmHg 63%
    11:00 +24°C° 0 mm 3 mps 753 mmHg 59%
    12:00 +24°C° 0.1 mm 3 mps 753 mmHg 56%
    13:00 +24°C° 0.1 mm 3 mps 753 mmHg 53%
    14:00 +23°C° 0.1 mm 4 mps 753 mmHg 50%
    15:00 +24°C° 0 mm 3 mps 753 mmHg 52%
    16:00 +24°C° 0 mm 3 mps 752 mmHg 54%
    17:00 +22°C° 0 mm 3 mps 752 mmHg 56%
    18:00 +20°C° 0 mm 3 mps 753 mmHg 61%
    19:00 +17°C° 0 mm 3 mps 753 mmHg 66%
    20:00 +14°C° 0 mm 3 mps 753 mmHg 71%
    21:00 +13°C° 0 mm 3 mps 753 mmHg 72%
    22:00 +12°C° 0 mm 3 mps 754 mmHg 73%
    23:00 +12°C° 0 mm 2 mps 754 mmHg 74%

    Day after tomorrow, 29 May, Tuesday

    Time Temperature Precipitation Wind Pressure Humidity
    00:00 +10°C° 0 mm 2 mps 754 mmHg 76%
    01:00 +9°C° 0 mm 2 mps 754 mmHg 78%
    02:00 +9°C° 0 mm 2 mps 755 mmHg 80%
    03:00 +9°C° 0 mm 2 mps 755 mmHg 80%
    04:00 +9°C° 0 mm 2 mps 754 mmHg 80%
    05:00 +9°C° 0 mm 2 mps 754 mmHg 80%
    06:00 +12°C° 0 mm 2 mps 754 mmHg 73%
    07:00 +14°C° 0 mm 2 mps 754 mmHg 67%
    08:00 +16°C° 0 mm 2 mps 754 mmHg 60%
    09:00 +18°C° 0 mm 2 mps 754 mmHg 55%
    10:00 +19°C° 0 mm 2 mps 754 mmHg 50%
    11:00 +20°C° 0 mm 2 mps 753 mmHg 45%
    12:00 +21°C° 0 mm 2 mps 753 mmHg 44%
    13:00 +23°C° 0 mm 2 mps 753 mmHg 43%
    14:00 +23°C° 0 mm 1 mps 752 mmHg 42%
    15:00 +23°C° 0 mm 1 mps 752 mmHg 45%
    16:00 +23°C° 0 mm 1 mps 751 mmHg 49%
    17:00 +23°C° 0 mm 1 mps 751 mmHg 52%
    18:00 +21°C° 0 mm 1 mps 750 mmHg 58%
    19:00 +19°C° 0 mm 1 mps 750 mmHg 65%
    20:00 +16°C° 0 mm 1 mps 750 mmHg 72%
    21:00 +15°C° 0 mm 1 mps 749 mmHg 74%
    22:00 +14°C° 0 mm 2 mps 749 mmHg 77%
    23:00 +14°C° 0 mm 2 mps 749 mmHg 80%

    30 May, Wednesday

    Time Temperature Precipitation Wind Pressure Humidity
    00:00 +13°C° 0 mm 2 mps 749 mmHg 82%
    01:00 +13°C° 0 mm 2 mps 749 mmHg 84%
    02:00 +13°C° 0 mm 2 mps 749 mmHg 87%
    03:00 +13°C° 0 mm 2 mps 748 mmHg 87%
    04:00 +13°C° 0 mm 2 mps 748 mmHg 87%
    05:00 +14°C° 0 mm 2 mps 748 mmHg 87%
    06:00 +16°C° 0 mm 3 mps 747 mmHg 82%
    07:00 +17°C° 0 mm 3 mps 747 mmHg 78%
    08:00 +19°C° 0 mm 3 mps 746 mmHg 73%
    09:00 +21°C° 0 mm 3 mps 746 mmHg 69%
    10:00 +22°C° 0 mm 4 mps 746 mmHg 65%
    11:00 +25°C° 0 mm 4 mps 745 mmHg 61%
    12:00 +25°C° 0 mm 4 mps 745 mmHg 60%
    13:00 +26°C° 0 mm 5 mps 744 mmHg 60%
    14:00 +26°C° 0 mm 5 mps 744 mmHg 59%
    15:00 +26°C° 0.1 mm 5 mps 743 mmHg 63%
    16:00 +25°C° 0.1 mm 4 mps 743 mmHg 66%
    17:00 +25°C° 0.1 mm 4 mps 742 mmHg 70%
    18:00 +22°C° 0.1 mm 4 mps 742 mmHg 76%
    19:00 +21°C° 0.1 mm 4 mps 741 mmHg 81%
    20:00 +19°C° 0.1 mm 3 mps 741 mmHg 87%
    21:00 +19°C° 0 mm 3 mps 741 mmHg 89%
    22:00 +18°C° 0 mm 3 mps 741 mmHg 91%
    23:00 +17°C° 0 mm 3 mps 740 mmHg 93%

    31 May, Thursday

    Time Temperature Precipitation Wind Pressure Humidity
    00:00 +17°C° 0.1 mm 3 mps 740 mmHg 94%
    01:00 +16°C° 0.1 mm 3 mps 740 mmHg 95%
    02:00 +16°C° 0.1 mm 2 mps 740 mmHg 96%
    03:00 +15°C° 0 mm 2 mps 740 mmHg 95%
    04:00 +14°C° 0 mm 3 mps 739 mmHg 94%
    05:00 +14°C° 0 mm 3 mps 739 mmHg 93%
    06:00 +14°C° 0.1 mm 3 mps 739 mmHg 87%
    07:00 +14°C° 0.1 mm 4 mps 740 mmHg 81%
    08:00 +15°C° 0.1 mm 4 mps 740 mmHg 76%
    09:00 +15°C° 0 mm 4 mps 740 mmHg 73%
    10:00 +14°C° 0 mm 4 mps 740 mmHg 69%
    11:00 +14°C° 0 mm 4 mps 740 mmHg 66%
    12:00 +15°C° 0 mm 4 mps 740 mmHg 63%
    13:00 +15°C° 0 mm 4 mps 740 mmHg 60%
    14:00 +17°C° 0 mm 4 mps 740 mmHg 58%
    15:00 +17°C° 0 mm 4 mps 740 mmHg 58%
    16:00 +17°C° 0 mm 3 mps 740 mmHg 59%
    17:00 +17°C° 0 mm 3 mps 740 mmHg 59%
    18:00 +14°C° 0 mm 3 mps 740 mmHg 62%
    19:00 +13°C° 0 mm 3 mps 741 mmHg 66%
    20:00 +11°C° 0 mm 3 mps 741 mmHg 69%
    21:00 +10°C° 0 mm 3 mps 741 mmHg 67%
    22:00 +10°C° 0 mm 3 mps 741 mmHg 65%
    23:00 +8°C° 0 mm 4 mps 741 mmHg 63%

    1 June, Friday

    Time Temperature Precipitation Wind Pressure Humidity
    00:00 +8°C° 0 mm 3 mps 742 mmHg 63%
    01:00 +7°C° 0 mm 3 mps 742 mmHg 63%
    02:00 +5°C° 0 mm 3 mps 742 mmHg 63%
    03:00 +5°C° 0 mm 3 mps 742 mmHg 64%
    04:00 +5°C° 0 mm 3 mps 742 mmHg 65%
    05:00 +5°C° 0 mm 3 mps 742 mmHg 66%
    06:00 +7°C° 0 mm 4 mps 742 mmHg 61%
    07:00 +8°C° 0 mm 4 mps 743 mmHg 55%
    08:00 +10°C° 0 mm 5 mps 743 mmHg 49%
    09:00 +12°C° 0 mm 5 mps 743 mmHg 48%
    10:00 +13°C° 0 mm 5 mps 743 mmHg 47%
    11:00 +13°C° 0 mm 5 mps 743 mmHg 46%
    12:00 +13°C° 0 mm 5 mps 743 mmHg 47%
    13:00 +13°C° 0 mm 5 mps 743 mmHg 49%
    14:00 +13°C° 0 mm 5 mps 743 mmHg 51%
    15:00 +13°C° 0 mm 5 mps 743 mmHg 51%
    16:00 +12°C° 0 mm 5 mps 743 mmHg 52%
    17:00 +12°C° 0 mm 5 mps 744 mmHg 53%
    18:00 +11°C° 0 mm 4 mps 744 mmHg 57%
    19:00 +8°C° 0 mm 4 mps 744 mmHg 60%
    20:00 +7°C° 0 mm 3 mps 744 mmHg 64%
    21:00 +5°C° 0 mm 3 mps 745 mmHg 66%
    22:00 +5°C° 0 mm 2 mps 745 mmHg 68%
    23:00 +4°C° 0 mm 2 mps 745 mmHg 69%
    Show more